DW1375 Weather Reports


time (UTC)temp
F
wind
direction
speed
knots
gust
knots
rain 1hr
in
rain 24hr
in
rain mn
in
humidity
%
barometer
mb
20260906094511 74 3 0.0 0.9 0.00 0.00 0.00 94 1012.8
20260906093020 74 3 0.0 0.9 0.00 0.00 0.00 94 1012.7
20260906091509 74 3 0.0 0.9 0.00 0.00 0.00 94 1012.8
20260906090009 75 3 0.0 0.0 0.00 0.00 0.00 94 1012.7
20260906084508 74 3 0.0 0.9 0.00 0.00 0.00 94 1012.7
20260906083008 75 3 0.0 0.9 0.00 0.00 0.00 94 1012.5
20260906081506 75 3 0.0 0.9 0.00 0.00 0.00 94 1012.5
20260906080005 75 3 0.0 0.9 0.00 0.00 0.00 94 1012.7
20260906074505 75 3 0.0 0.0 0.00 0.00 0.00 94 1012.9
20260906073003 75 3 0.0 1.7 0.00 0.00 0.00 94 1013.1
20260906071505 75 3 0.0 0.9 0.00 0.00 0.00 94 1012.7
20260906070135 75 3 0.0 0.9 0.00 0.00 0.00 94 1012.7
20260906064501 75 3 0.0 0.0 0.00 0.00 0.00 94 1012.4
20260906063101 75 3 0.0 0.9 0.00 0.00 0.00 94 1012.5
20260906061625 76 3 0.0 0.0 0.00 0.00 0.00 94 1012.7
20260906060056 76 3 0.0 0.0 0.00 0.00 0.00 94 1013.0
20260906054553 76 3 0.0 0.0 0.00 0.00 0.00 94 1013.0
20260906053056 76 3 0.0 0.0 0.00 0.00 0.00 93 1013.0
20260906051552 76 3 0.0 0.0 0.00 0.00 0.00 93 1013.1
20260906050107 76 3 0.0 0.0 0.00 0.00 0.00 93 1012.9
20260906044548 77 3 0.0 0.0 0.00 0.00 0.00 93 1013.1
20260906043104 77 3 0.0 0.0 0.00 0.00 0.00 93 1013.3
20260906041547 77 3 0.0 0.0 0.00 0.00 0.00 93 1013.3
20260906040106 77 3 0.0 0.0 0.00 0.00 0.00 93 1013.2
20260906034546 77 3 0.0 0.0 0.00 0.00 0.00 93 1013.4
20260906033049 77 3 0.0 0.0 0.00 0.00 0.00 93 1013.3
20260906031545 77 3 0.0 0.0 0.00 0.00 0.00 92 1013.4
20260906030043 78 3 0.0 0.0 0.00 0.00 0.00 92 1013.5
20260906024542 78 3 0.0 0.0 0.00 0.00 0.00 92 1013.3
20260906023057 78 3 0.0 0.0 0.00 0.00 0.00 92 1013.2
20260906021542 78 3 0.0 0.0 0.00 0.00 0.00 92 1012.9
20260906020041 79 3 0.0 0.0 0.00 0.00 0.00 91 1012.8
20260906014554 79 188 0.0 0.0 0.00 0.00 0.00 91 1012.5
20260906013041 79 188 0.0 0.0 0.00 0.00 0.00 91 1012.0
20260906011551 80 188 0.0 0.0 0.00 0.00 0.00 90 1012.0
20260906010040 80 188 0.0 0.9 0.00 0.00 0.00 89 1012.2
20260906004540 81 188 0.0 0.9 0.00 0.00 0.00 89 1012.2
20260906003139 81 188 0.0 0.0 0.00 0.00 0.00 87 1012.1
20260906001540 82 188 0.0 0.0 0.00 0.00 0.00 86 1011.9
20260906000039 83 188 0.0 0.0 0.00 0.00 0.00 85 1011.9
20260905234548 83 188 0.0 0.9 0.00 0.00 0.00 84 1011.9
20260905233037 84 188 0.0 1.7 0.00 0.00 0.00 83 1012.0
20260905231537 85 188 0.0 1.7 0.00 0.00 0.00 82 1012.0
20260905230042 86 188 0.0 1.7 0.00 0.00 0.00 81 1012.0
20260905224537 88 188 0.0 1.7 0.00 0.00 0.00 80 1011.8
20260905223037 89 180 0.0 1.7 0.00 0.00 0.00 78 1012.0
20260905221535 90 176 0.9 2.6 0.00 0.00 0.00 79 1011.9
20260905220034 91 283 0.0 1.7 0.00 0.00 0.00 79 1011.9
20260905214532 91 174 0.9 1.7 0.00 0.00 0.00 76 1011.9
20260905213031 91 158 0.9 3.5 0.00 0.00 0.00 78 1011.9
20260905211531 92 141 0.0 2.6 0.00 0.00 0.00 75 1012.1
20260905210031 91 140 0.9 2.6 0.00 0.00 0.00 75 1012.0
20260905204528 92 108 0.9 2.6 0.00 0.00 0.00 76 1012.1
20260905203028 92 240 0.9 1.7 0.00 0.00 0.00 74 1012.2
20260905201528 91 252 0.0 2.6 0.00 0.00 0.00 76 1012.1
20260905200039 93 226 0.9 3.5 0.00 0.00 0.00 74 1012.2
20260905194524 93 222 0.0 1.7 0.00 0.00 0.00 75 1012.3
20260905193023 92 196 0.0 1.7 0.00 0.00 0.00 70 1012.5
20260905191518 88 180 0.0 0.9 0.00 0.00 0.00 78 1012.9
20260905190039 90 228 0.0 1.7 0.00 0.00 0.00 77 1012.9
20260905184516 91 189 0.0 1.7 0.00 0.00 0.00 75 1013.0
20260905183016 88 192 0.9 2.6 0.00 0.00 0.00 80 1013.2
20260905181517 91 239 0.9 2.6 0.00 0.00 0.00 74 1013.4
20260905180017 96 240 0.9 2.6 0.00 0.00 0.00 59 1013.6
20260905174508 93 253 0.0 3.5 0.00 0.00 0.00 65 1013.7
20260905173006 93 130 0.0 2.6 0.00 0.00 0.00 62 1013.7
20260905171503 96 237 0.0 3.5 0.00 0.00 0.00 62 1014.2
20260905170059 94 241 0.9 1.7 0.00 0.00 0.00 70 1014.3
20260905164602 94 295 0.0 1.7 0.00 0.00 0.00 63 1014.6
20260905163052 93 71 0.9 2.6 0.00 0.00 0.00 68 1014.7
20260905161547 92 324 0.0 3.5 0.00 0.00 0.00 70 1014.9
20260905160044 91 58 0.0 1.7 0.00 0.00 0.00 73 1015.0
20260905154542 89 164 0.0 1.7 0.00 0.00 0.00 76 1015.0
20260905153051 88 191 0.0 1.7 0.00 0.00 0.00 81 1015.1
20260905151537 85 191 0.0 1.7 0.00 0.00 0.00 83 1015.2
20260905150031 85 274 0.0 2.6 0.00 0.00 0.00 81 1015.2
20260905144526 83 75 0.9 3.5 0.00 0.00 0.00 82 1015.2
20260905143023 82 77 0.9 3.5 0.00 0.00 0.00 85 1015.3
20260905141522 81 125 0.9 2.6 0.00 0.00 0.00 85 1015.2
20260905140015 79 125 0.0 2.6 0.00 0.00 0.00 89 1015.3
20260905134512 78 141 1.7 2.6 0.00 0.00 0.00 92 1015.3
20260905133009 76 206 0.0 0.0 0.00 0.00 0.00 94 1015.3
20260905131505 76 3 0.0 0.0 0.00 0.00 0.00 95 1015.4
20260905130011 74 3 0.0 0.0 0.00 0.00 0.00 95 1015.3
20260905124501 73 3 0.0 0.0 0.00 0.00 0.00 94 1015.4
20260905123059 73 3 0.0 0.0 0.00 0.00 0.00 95 1015.4
20260905121556 72 3 0.0 0.0 0.00 0.00 0.00 94 1015.2
20260905120105 72 3 0.0 0.0 0.00 0.00 0.00 94 1015.1
20260905114551 72 3 0.0 0.0 0.00 0.00 0.00 94 1014.9
20260905113050 72 3 0.0 0.0 0.00 0.00 0.00 94 1014.7
20260905111607 72 3 0.0 0.0 0.00 0.00 0.00 94 1014.7
20260905110055 72 3 0.0 0.0 0.00 0.00 0.00 94 1014.6
20260905104548 72 3 0.0 0.0 0.00 0.00 0.00 94 1014.6
20260905103047 72 3 0.0 0.0 0.00 0.00 0.00 94 1014.5
20260905101549 73 3 0.0 0.0 0.00 0.00 0.00 94 1014.7
20260905100047 72 3 0.0 0.0 0.00 0.00 0.00 94 1014.7